This is the latest recevied weather packets stored in our database for station/object KC5DAQ-27. If no packets are shown the sender has not sent any weather packets the latest 10 day(s).
| Time | Temp. | Humidity | Pressure | Rain* | Wind** | Luminosity | Snow |
|---|---|---|---|---|---|---|---|
| 1778245442 | 18.89° C | 91% | 1004.4 hPa | 0 mm | - | 109 W/m² | - |
| 1778245383 | 18.89° C | 91% | 1004.4 hPa | 0 mm | - | 90 W/m² | - |
| 1778245323 | 18.89° C | 91% | 1004.4 hPa | 0 mm | - | 84 W/m² | - |
| 1778245263 | 18.89° C | 91% | 1004.4 hPa | 0 mm | - | 84 W/m² | - |
| 1778245202 | 18.89° C | 91% | 1004.4 hPa | 0 mm | - | 84 W/m² | - |
| 1778245143 | 18.89° C | 91% | 1004.4 hPa | 0 mm | - | 81 W/m² | - |
| 1778245084 | 18.89° C | 92% | 1004.4 hPa | 0 mm | - | 77 W/m² | - |
| 1778245022 | 18.89° C | 91% | 1004.3 hPa | 0 mm | - | 76 W/m² | - |
| 1778244963 | 18.89° C | 92% | 1004.2 hPa | 0 mm | - | 77 W/m² | - |
| 1778244902 | 18.89° C | 92% | 1004.1 hPa | 0 mm | - | 77 W/m² | - |
| 1778244843 | 18.89° C | 92% | 1004.1 hPa | 0 mm | - | 76 W/m² | - |
| 1778244782 | 18.89° C | 91% | 1004.2 hPa | 0 mm | - | 74 W/m² | - |
| 1778244723 | 18.89° C | 91% | 1004.2 hPa | 0 mm | - | 74 W/m² | - |
| 1778244664 | 18.89° C | 91% | 1004.2 hPa | 0 mm | - | 69 W/m² | - |
| 1778244604 | 18.89° C | 91% | 1004.3 hPa | 0 mm | - | 69 W/m² | - |
| 1778244542 | 18.89° C | 91% | 1004.2 hPa | 0 mm | - | 69 W/m² | - |
| 1778244482 | 18.89° C | 91% | 1004.2 hPa | 0 mm | - | 67 W/m² | - |
| 1778244423 | 18.89° C | 91% | 1004.1 hPa | 0 mm | - | 63 W/m² | - |
| 1778244364 | 18.89° C | 91% | 1004.1 hPa | 0 mm | - | 55 W/m² | - |
| 1778244302 | 18.89° C | 91% | 1004.1 hPa | 0 mm | - | 51 W/m² | - |
| 1778244243 | 18.89° C | 91% | 1004.1 hPa | 0 mm | - | 48 W/m² | - |
| 1778244183 | 18.89° C | 91% | 1004.2 hPa | 0 mm | - | 42 W/m² | - |
| 1778244125 | 18.89° C | 91% | 1004.2 hPa | 0 mm | - | 37 W/m² | - |
| 1778244065 | 18.89° C | 91% | 1004.1 hPa | 0 mm | - | 37 W/m² | - |
| 1778244004 | 18.89° C | 91% | 1004.3 hPa | 0 mm | - | 42 W/m² | - |
* Rain latest hour (hover to see other rain measurements)
** Current wind speed in m/s (hover to see current wind gust speed)